Volver al catálogo

STARLINK-36797

ActivoComunicacionesSSO
NORAD 67815·PAYLOAD·🇺🇸 United States

Lanzado Feb 15, 2026 desde Vandenberg Space Force Base

Loading…

Próximos Pases (próximas 24 horas)

TLE

ActualizadoSource: CelesTrak SupGP

Época: Sep 14, 2026, 20:56 UTC

1 67815C 26032U   26257.87270833  .00085987  00000+0  26701-2 0  2571
2 67815  97.2856  84.3576 0001574  92.7215 243.5930 15.33385642    19

Sigue STARLINK-36797 en tiempo real con AllMySat

Download on the App Store